Temp
13 14 14 14 15 15 15 15 16 16 17 17 18 18 19 19 20 21 21 22 22 23 23 24 24 25 25 26 29 29 29 28 28 29 29 32 34 35 35 36 36 35 35 34 34 33 33
13 13 14 14 14 15 15 15 16 16 16 17 17 18 18 19 20 20 21 22 22 23 24 24 24 25 25 28 30 29 29 28 29 29 31 33 34 35 35 36 35 35 35 34 34 31 32
13 13 13 14 14 14 15 15 15 16 17 17 17 18 18 19 20 20 21 22 23 23 24 24 24 25 24 29 30 29 29 29 29 31 32 33 34 34 36 36 35 35 34 33 34 29 29
13 13 13 13 14 14 15 15 15 16 16 17 17 18 18 19 20 20 21 22 23 23 24 24 25 24 27 30 30 30 30 30 30 31 32 33 33 34 35 35 35 31 27 22 26 28 20
13 13 13 13 14 14 14 15 15 16 16 17 17 18 18 19 20 21 22 23 23 24 24 24 25 25 29 29 29 30 30 31 31 31 32 32 33 34 35 35 35 35 28 25 25 29 23
13 13 13 13 14 14 14 15 15 15 16 17 17 18 18 19 20 21 22 23 24 24 24 24 25 26 28 30 30 30 30 31 32 32 33 33 34 35 36 33 31 30 30 31 29 31 34
12 13 13 13 13 14 14 15 15 15 16 16 17 18 19 19 20 21 23 23 23 23 23 28 29 29 31 31 31 31 31 31 32 32 33 34 34 34 32 27 29 31 30 31 35 35 34
10 12 13 13 13 13 14 14 15 15 16 16 17 18 19 19 21 21 22 23 27 26 27 27 29 30 32 32 31 31 31 31 32 32 34 34 33 34 34 32 34 33 34 34 34 35 34
9 10 12 13 13 13 14 14 14 15 15 16 17 18 19 20 21 22 23 24 25 25 28 30 29 31 31 31 32 32 31 31 33 33 34 33 35 36 35 35 34 35 33 33 33 33 32
10 10 11 12 12 13 14 14 14 15 15 16 17 18 19 20 21 22 24 25 25 25 27 31 32 31 31 31 32 32 32 32 33 33 34 34 29 28 35 34 35 34 33 33 34 34 31
11 11 11 12 12 13 13 14 14 15 15 16 17 18 19 19 21 22 24 24 24 26 27 34 32 32 31 31 33 33 33 32 33 34 34 34 33 32 34 35 35 34 35 35 35 34 33
11 11 12 12 12 13 14 14 14 15 15 16 17 18 19 19 21 23 22 24 25 27 28 32 32 32 32 32 32 33 33 32 33 34 34 34 33 35 34 36 36 36 35 34 35 34 30
11 12 12 12 12 13 14 14 14 15 15 16 18 18 20 20 21 22 23 24 26 27 34 32 32 32 32 32 33 34 33 32 32 31 31 33 34 35 36 35 35 35 34 32 29 27 27
11 12 12 12 12 13 13 14 14 15 15 17 19 20 21 21 20 20 22 26 26 31 32 35 34 33 31 33 33 33 33 32 33 33 32 31 32 34 36 34 34 34 34 31 23 27 29
12 12 12 12 12 12 13 14 14 15 16 17 19 19 21 21 21 20 23 25 28 31 34 34 33 32 32 33 33 33 32 32 33 33 32 33 32 35 35 35 35 34 33 35 32 32 34
12 12 12 12 12 12 13 14 14 15 16 17 19 20 23 22 20 21 25 24 30 33 32 33 31 33 32 33 33 33 33 34 34 35 35 34 33 36 36 35 35 34 35 33 34 31 31
12 12 12 12 12 11 12 13 14 15 17 18 19 22 23 22 22 23 25 27 30 32 31 31 31 32 33 33 34 33 33 34 35 35 35 34 34 34 35 34 33 34 33 34 35 34 32
12 12 12 12 11 11 12 13 13 15 17 18 18 24 23 23 24 26 27 29 30 32 31 31 32 32 32 34 34 33 33 34 35 35 34 34 34 33 34 35 36 35 34 35 33 32 33
11 11 11 11 11 11 11 13 13 14 15 15 18 24 24 23 25 28 29 30 31 31 31 31 31 32 33 33 32 34 34 35 35 35 34 34 33 31 33 34 35 34 35 35 36 36 26
11 10 10 10 10 10 11 12 13 13 15 15 17 26 25 24 25 27 29 30 30 30 30 31 32 32 32 32 33 33 34 34 34 34 31 33 34 33 32 33 35 33 34 35 35 34 24
9 8 9 10 10 10 10 12 13 14 14 15 18 24 19 27 27 28 29 29 29 30 30 30 30 31 31 31 32 33 34 34 33 31 32 34 32 33 33 32 34 35 34 34 34 35 33
9 9 9 9 10 10 10 12 13 14 16 17 20 21 22 24 26 28 26 28 28 29 31 30 30 31 31 31 32 32 33 34 32 33 32 34 31 33 33 32 33 32 34 33 35 35 35
9 9 9 9 10 10 10 11 13 14 15 16 18 18 20 23 26 27 28 27 23 30 29 30 31 30 31 32 28 25 25 27 33 33 32 32 32 32 31 34 34 32 34 35 35 35 35
9 9 9 9 10 10 10 11 12 13 13 13 14 16 19 23 26 28 25 19 19 22 28 29 29 29 30 29 27 26 25 26 26 33 34 32 32 33 32 32 30 34 31 34 34 34 32
9 9 9 9 10 10 10 11 11 12 13 14 13 15 18 21 24 26 26 20 18 26 27 27 28 29 29 28 29 28 23 20 22 21 23 31 33 31 31 31 31 32 27 26 28 31 32
8 8 9 9 9 10 10 10 11 12 12 13 13 13 15 18 24 23 24 25 26 27 29 29 29 27 28 29 30 28 25 18 20 21 25 29 22 23 24 26 23 20 25 26 27 28 22
8 8 8 9 9 9 10 11 11 11 12 13 14 13 14 17 20 22 23 23 23 25 24 18 18 28 28 29 29 22 22 23 19 23 23 24 19 19 21 25 24 23 26 26 26 24 24
7 7 7 8 9 9 10 10 11 11 11 12 13 13 13 15 18 20 21 22 23 24 22 14 16 28 30 28 29 22 20 21 22 23 20 21 21 24 29 29 24 26 26 25 27 24 28
7 7 7 8 8 9 9 10 10 11 11 12 12 13 12 13 16 17 18 19 20 21 21 22 25 26 27 27 22 19 19 21 18 23 23 22 21 22 26 26 23 23 24 24 22 20 29
Height
1547 1546 1544 1542 1541 1539 1537 1534 1532 1530 1527 1525 1522 1519 1517 1514 1511 1509 1506 1504 1503 1501 1499 1497 1495 1494 1493 1493 1488 1484 1487 1489 1491 1492 1492 1487 1482 1478 1475 1474 1474 1477 1482 1484 1486 1488 1491
1548 1546 1545 1543 1541 1539 1537 1534 1532 1529 1527 1524 1521 1518 1515 1512 1510 1507 1505 1503 1501 1500 1498 1497 1495 1494 1493 1492 1486 1485 1487 1489 1491 1492 1490 1485 1481 1477 1474 1473 1476 1477 1481 1485 1487 1494 1497
1548 1546 1545 1543 1541 1539 1537 1534 1531 1529 1526 1523 1520 1517 1514 1511 1508 1505 1503 1500 1500 1499 1497 1496 1495 1493 1493 1489 1487 1487 1488 1489 1491 1491 1487 1485 1482 1479 1472 1473 1478 1479 1485 1489 1487 1498 1512
1548 1547 1545 1543 1541 1539 1536 1533 1531 1528 1525 1522 1518 1515 1512 1509 1506 1503 1500 1499 1498 1497 1496 1496 1495 1494 1490 1486 1487 1488 1489 1491 1491 1491 1489 1486 1485 1480 1475 1477 1477 1488 1506 1532 1498 1514 1519
1548 1547 1545 1543 1541 1538 1536 1533 1530 1527 1524 1521 1517 1514 1511 1508 1504 1501 1498 1497 1496 1496 1495 1495 1495 1495 1488 1483 1486 1486 1488 1489 1490 1490 1489 1487 1484 1478 1472 1473 1478 1475 1510 1522 1515 1491 1513
1548 1546 1544 1542 1540 1537 1535 1532 1529 1526 1522 1519 1516 1512 1509 1506 1502 1499 1496 1495 1494 1494 1495 1494 1494 1498 1482 1481 1482 1484 1487 1488 1489 1488 1488 1486 1482 1475 1467 1479 1499 1499 1505 1496 1500 1486 1483
1548 1546 1543 1541 1539 1536 1534 1530 1528 1524 1521 1517 1514 1510 1507 1504 1501 1498 1495 1494 1495 1493 1493 1484 1480 1479 1474 1477 1481 1482 1485 1487 1486 1486 1484 1481 1480 1478 1481 1488 1496 1489 1493 1489 1468 1471 1480
1547 1545 1542 1540 1538 1535 1532 1529 1526 1523 1519 1515 1512 1508 1505 1503 1499 1497 1494 1494 1491 1492 1486 1480 1480 1478 1476 1476 1480 1481 1484 1486 1484 1483 1479 1477 1479 1469 1471 1480 1476 1478 1476 1476 1476 1473 1478
1547 1544 1542 1540 1537 1534 1530 1528 1524 1521 1517 1513 1510 1506 1503 1501 1497 1495 1494 1493 1492 1491 1485 1473 1473 1473 1475 1477 1476 1477 1480 1481 1479 1479 1474 1475 1466 1463 1468 1471 1475 1470 1479 1485 1481 1478 1480
1548 1545 1542 1539 1536 1533 1529 1526 1523 1519 1515 1512 1508 1504 1501 1498 1498 1495 1493 1493 1493 1492 1485 1462 1461 1468 1472 1476 1473 1471 1475 1479 1476 1476 1471 1467 1468 1490 1469 1471 1465 1478 1474 1477 1475 1480 1500
1547 1545 1542 1539 1535 1531 1528 1524 1521 1517 1513 1509 1506 1502 1500 1497 1496 1494 1494 1493 1492 1492 1500 1441 1456 1461 1465 1469 1466 1467 1470 1474 1473 1468 1467 1467 1468 1474 1474 1466 1464 1473 1469 1471 1469 1476 1476
1546 1543 1541 1538 1534 1530 1526 1522 1519 1515 1510 1506 1503 1499 1497 1495 1493 1492 1492 1493 1493 1493 1489 1450 1452 1456 1461 1463 1465 1462 1466 1472 1472 1468 1464 1460 1461 1459 1464 1460 1461 1460 1467 1471 1467 1472 1505
1545 1542 1540 1536 1532 1528 1524 1520 1517 1512 1508 1503 1499 1496 1493 1492 1492 1493 1494 1494 1492 1489 1438 1447 1451 1454 1456 1461 1461 1457 1464 1468 1474 1483 1479 1465 1464 1458 1457 1463 1460 1463 1476 1498 1513 1523 1528
1542 1540 1537 1534 1530 1526 1522 1518 1514 1510 1505 1499 1495 1491 1488 1487 1489 1491 1494 1491 1493 1452 1447 1431 1439 1447 1458 1453 1457 1455 1460 1469 1464 1465 1472 1480 1483 1460 1455 1462 1466 1465 1472 1496 1561 1531 1503
1540 1537 1534 1531 1528 1524 1520 1517 1512 1507 1502 1496 1491 1488 1485 1485 1486 1490 1492 1488 1471 1449 1435 1436 1440 1448 1455 1449 1452 1452 1461 1463 1459 1462 1473 1468 1471 1451 1454 1458 1463 1466 1477 1458 1485 1474 1472
1536 1534 1531 1528 1525 1522 1518 1515 1511 1505 1501 1495 1488 1486 1485 1486 1486 1490 1487 1480 1454 1444 1444 1443 1450 1441 1452 1449 1452 1450 1453 1451 1453 1452 1455 1454 1468 1444 1447 1454 1458 1461 1455 1475 1465 1495 1496
1533 1531 1529 1526 1523 1520 1517 1513 1509 1503 1499 1493 1488 1485 1482 1484 1488 1488 1481 1468 1455 1448 1451 1455 1450 1443 1441 1441 1441 1448 1448 1444 1444 1445 1449 1452 1454 1451 1443 1457 1463 1465 1467 1462 1458 1460 1481
1529 1527 1525 1523 1521 1518 1515 1512 1508 1502 1497 1493 1490 1481 1480 1483 1486 1478 1472 1462 1453 1447 1450 1454 1450 1445 1441 1433 1437 1441 1446 1440 1438 1443 1449 1451 1451 1458 1454 1444 1445 1448 1455 1455 1472 1476 1464
1525 1524 1522 1520 1519 1516 1514 1511 1508 1502 1498 1492 1490 1479 1478 1481 1477 1465 1460 1456 1450 1452 1452 1451 1449 1445 1438 1437 1442 1432 1438 1435 1434 1441 1445 1449 1456 1471 1463 1452 1447 1452 1449 1446 1443 1442 1493
1521 1520 1519 1518 1517 1515 1512 1510 1507 1503 1498 1497 1492 1471 1472 1476 1473 1465 1452 1447 1450 1451 1453 1449 1447 1443 1441 1442 1432 1434 1436 1434 1440 1443 1447 1445 1448 1453 1465 1449 1441 1453 1449 1446 1448 1457 1497
1518 1518 1516 1516 1515 1513 1511 1508 1505 1502 1499 1497 1491 1475 1482 1464 1463 1460 1454 1450 1449 1447 1446 1449 1449 1447 1446 1448 1440 1436 1432 1431 1438 1444 1445 1444 1455 1445 1441 1447 1439 1436 1443 1446 1449 1444 1459
1516 1516 1515 1514 1513 1512 1510 1506 1504 1502 1498 1495 1490 1487 1480 1471 1466 1457 1455 1456 1453 1447 1442 1444 1446 1443 1444 1443 1435 1435 1431 1431 1438 1441 1443 1441 1452 1444 1448 1446 1446 1451 1439 1443 1438 1442 1445
1513 1514 1513 1513 1511 1510 1508 1505 1503 1501 1499 1497 1493 1492 1487 1474 1464 1457 1453 1454 1460 1445 1445 1442 1441 1440 1438 1436 1439 1440 1447 1448 1430 1436 1442 1442 1443 1448 1457 1437 1441 1459 1441 1438 1438 1438 1441
1510 1511 1511 1511 1509 1508 1506 1504 1503 1501 1500 1499 1499 1497 1491 1476 1463 1454 1459 1467 1463 1454 1450 1446 1444 1443 1439 1440 1445 1448 1448 1450 1441 1427 1431 1439 1440 1440 1450 1444 1471 1438 1438 1434 1437 1438 1444
1508 1508 1509 1508 1508 1507 1506 1504 1502 1501 1499 1498 1497 1499 1493 1481 1469 1459 1457 1464 1474 1456 1452 1450 1446 1443 1442 1445 1448 1453 1471 1462 1457 1449 1437 1432 1433 1446 1454 1453 1445 1442 1457 1462 1462 1453 1444
1506 1506 1506 1507 1506 1506 1505 1503 1501 1500 1498 1497 1496 1498 1497 1490 1469 1467 1467 1465 1462 1450 1444 1444 1443 1443 1442 1439 1437 1448 1465 1485 1495 1473 1440 1440 1445 1464 1474 1477 1495 1489 1470 1458 1463 1465 1452
1504 1504 1504 1504 1505 1504 1503 1502 1500 1499 1498 1497 1495 1497 1496 1489 1476 1473 1467 1467 1465 1458 1455 1452 1460 1444 1440 1436 1437 1465 1472 1473 1489 1473 1461 1468 1476 1478 1485 1478 1475 1461 1466 1471 1484 1477 1457
1502 1502 1502 1503 1503 1502 1502 1501 1500 1499 1497 1496 1496 1497 1496 1490 1478 1476 1472 1466 1466 1466 1470 1483 1470 1444 1434 1438 1436 1466 1474 1478 1476 1473 1477 1477 1480 1475 1448 1445 1479 1467 1473 1485 1468 1466 1472
1500 1500 1501 1501 1501 1501 1501 1500 1499 1498 1497 1496 1496 1497 1495 1492 1479 1472 1470 1465 1468 1474 1475 1475 1465 1453 1446 1441 1460 1476 1485 1478 1479 1478 1471 1478 1474 1482 1467 1465 1463 1472 1466 1461 1466 1479 1462
Wind_Speed
8 8 9 9 10 11 12 12 13 13 14 14 15 15 16 16 16 16 15 14 13 11 12 11 7 4 4 7 10 5 15 14 13 11 9 16 17 12 15 7 8 14 6 12 9 14 17
8 9 9 10 10 11 12 12 13 14 15 15 16 16 17 17 17 16 15 14 12 10 10 9 6 5 4 12 2 12 15 15 12 11 12 12 14 1 19 8 7 6 11 11 10 20 19
9 9 10 10 11 11 13 13 14 15 16 16 17 17 18 18 18 17 15 14 11 8 8 7 6 7 8 12 2 12 15 15 12 11 15 7 8 12 5 6 10 7 8 12 9 20 12
9 10 10 11 12 13 13 14 15 16 17 17 18 18 18 19 19 17 15 13 10 7 6 6 5 6 9 9 7 14 15 15 13 10 10 4 9 14 18 5 9 20 12 11 25 8 10
9 10 11 11 12 13 14 15 16 17 18 18 18 19 19 20 20 18 14 11 8 7 5 4 3 5 17 12 12 16 18 17 13 12 11 10 11 21 14 12 13 9 15 16 9 29 14
10 11 11 12 13 13 14 16 16 17 18 19 19 19 19 19 19 18 12 7 6 6 5 5 8 7 17 14 14 18 18 17 16 14 12 12 17 17 17 5 1 13 9 10 20 11 12
11 11 11 12 13 14 15 16 17 18 19 20 20 20 19 18 18 17 9 7 5 4 13 15 16 16 8 13 15 18 20 18 17 17 15 19 15 18 18 19 26 15 21 23 8 11 3
12 12 12 12 13 15 16 17 18 19 20 20 21 20 20 17 16 12 7 4 7 8 12 25 21 22 6 12 12 17 22 20 19 18 19 18 18 5 18 20 16 23 19 4 11 8 3
13 15 15 14 14 15 16 17 19 20 20 21 21 21 20 16 13 4 5 12 9 8 9 17 27 18 17 11 17 21 26 26 18 19 20 22 25 9 10 9 10 12 9 11 6 8 5
13 15 17 17 16 16 17 18 19 20 20 21 22 21 20 16 7 6 7 5 5 6 5 13 26 22 21 18 18 20 27 28 20 21 23 21 14 25 10 9 10 1 3 11 9 5 8
13 16 18 19 19 18 18 19 20 21 21 22 22 22 18 18 12 5 3 3 6 4 6 15 19 9 21 25 12 20 25 26 23 23 17 21 14 30 13 11 12 2 7 10 12 9 11
14 16 19 21 21 21 20 20 21 22 23 23 22 23 19 14 9 9 8 4 4 6 10 9 10 12 20 23 25 20 19 24 26 22 18 23 11 15 13 12 15 14 8 13 13 10 5
16 18 20 22 23 22 22 21 21 23 24 25 22 23 18 11 4 3 6 6 6 9 9 11 17 15 19 19 21 21 17 17 19 16 19 20 18 18 17 17 13 17 10 11 6 4 2
19 20 22 23 24 23 22 22 22 24 25 26 22 19 13 10 9 9 6 8 9 12 18 3 12 15 20 19 22 16 17 18 20 21 14 16 17 19 10 13 14 15 13 7 4 7 15
21 21 23 24 25 23 22 21 22 24 25 28 21 9 8 4 11 8 12 10 9 16 7 2 5 15 16 18 16 16 18 18 20 21 19 16 17 17 21 15 18 14 14 19 16 24 14
21 22 23 25 23 21 21 20 22 25 23 27 19 5 11 6 8 9 9 17 18 16 6 7 12 10 15 19 20 19 17 19 20 22 22 21 14 16 18 19 19 22 14 14 9 14 11
22 23 23 23 19 18 20 19 21 25 23 20 11 6 10 7 10 12 11 17 18 10 8 7 14 15 13 14 21 17 17 16 18 18 20 20 17 13 17 15 17 17 16 13 14 12 11
21 21 22 19 16 17 19 17 19 24 23 15 7 4 8 11 11 15 12 19 19 12 9 9 14 15 15 14 16 18 19 13 13 21 18 17 13 14 15 16 16 19 17 18 11 17 4
19 18 19 15 15 15 18 15 16 20 22 25 7 16 6 12 8 12 18 20 17 7 11 14 12 14 14 14 12 17 16 13 14 13 13 14 17 12 12 18 16 17 19 19 15 17 6
17 15 16 12 13 14 16 14 14 17 18 19 7 4 8 13 20 18 16 14 15 17 17 19 14 14 13 13 15 8 16 9 5 10 6 15 18 18 15 19 19 24 15 13 18 12 8
10 11 13 11 12 14 16 13 12 13 15 16 6 2 9 6 12 16 16 9 13 16 17 18 13 12 13 13 14 12 15 11 11 9 5 13 18 21 6 20 19 17 14 20 21 12 8
9 11 10 10 11 13 15 14 11 12 9 6 8 14 16 20 17 9 7 10 15 12 14 15 15 15 19 19 18 9 13 13 14 13 14 17 16 16 17 18 20 13 5 19 11 11 8
10 9 9 9 10 11 14 14 10 11 7 6 11 13 12 15 14 13 8 3 13 13 8 15 12 12 18 13 12 14 28 39 9 16 16 18 16 15 16 18 15 18 13 14 10 12 10
11 9 8 8 8 10 13 12 9 10 8 6 8 12 12 11 14 13 13 11 10 31 7 18 17 9 14 16 8 0 27 23 30 13 21 17 16 13 12 14 18 5 22 11 9 11 17
9 9 9 9 7 8 10 10 9 8 8 8 5 11 11 10 19 18 11 19 44 24 13 19 18 13 13 15 11 13 3 7 14 13 17 15 14 11 11 13 5 3 15 12 10 8 14
7 9 9 9 8 7 8 10 10 9 9 7 2 8 10 13 8 17 13 11 11 14 13 19 12 11 12 9 10 14 5 8 8 7 29 19 13 6 5 2 2 5 12 9 14 3 19
8 9 10 8 8 8 7 10 11 10 9 8 4 7 8 15 20 12 11 11 17 15 9 17 35 11 13 8 11 6 5 12 5 9 8 5 4 2 2 4 5 17 19 7 9 7 8
5 5 6 6 7 9 9 10 11 10 9 7 4 7 6 12 25 16 17 18 14 10 8 1 22 13 8 8 9 4 4 2 4 5 3 4 4 6 9 9 8 4 9 6 7 21 3
9 8 7 8 10 10 10 11 11 9 8 4 3 4 10 11 16 21 21 22 19 10 10 11 16 12 8 6 9 6 4 3 6 9 2 3 3 3 12 4 9 3 12 32 30 14 14
Wind_Direction
16 12 10 7 4 3 360 357 355 352 351 347 344 342 338 333 328 323 319 315 318 323 325 327 316 295 273 257 259 209 182 189 192 209 253 257 251 240 265 128 226 120 100 109 125 111 99
10 8 5 3 360 358 356 353 350 348 347 345 343 340 337 334 330 325 318 311 311 315 317 318 299 277 273 252 104 166 179 187 186 223 252 257 289 114 280 149 350 111 136 119 131 80 96
2 1 357 355 353 353 351 348 345 344 342 340 339 337 336 333 330 328 318 308 305 306 307 308 288 279 264 248 196 182 186 194 207 222 256 251 287 263 287 154 160 149 100 9 157 107 95
356 351 352 349 347 346 346 344 342 339 337 336 335 334 333 332 329 327 317 306 301 292 292 292 276 283 249 207 201 189 189 200 216 232 269 301 262 269 271 249 209 87 48 30 301 13 63
347 343 342 341 341 341 341 340 339 337 334 332 331 330 331 330 327 326 315 303 293 282 265 262 270 281 253 210 203 194 194 201 212 227 245 272 264 259 213 228 221 182 168 177 252 266 178
341 339 339 338 336 336 337 336 336 335 334 330 329 328 329 329 327 324 313 296 276 252 244 232 247 260 241 216 191 191 197 208 211 222 232 240 240 242 241 349 219 33 359 236 199 238 182
337 336 337 338 335 335 334 333 333 334 334 331 329 327 328 329 326 323 309 287 282 224 213 215 175 219 130 194 183 194 196 207 222 225 225 219 237 243 84 78 277 151 207 250 136 108 359
347 339 335 336 337 335 336 335 334 333 333 332 329 327 325 327 324 317 288 240 354 323 299 233 246 224 232 165 183 208 195 203 217 219 222 232 230 193 257 171 193 187 226 5 38 43 279
353 353 348 342 339 335 336 336 336 334 333 330 328 327 323 327 322 322 276 283 305 317 273 256 219 225 200 226 218 204 199 204 218 227 223 233 234 156 237 224 237 243 67 277 217 188 77
352 352 352 350 344 335 333 335 335 333 330 327 326 325 324 326 317 281 273 245 284 311 276 229 200 215 215 214 235 213 202 208 225 220 238 243 90 298 203 246 262 249 9 287 282 238 240
350 350 348 344 341 338 333 332 333 333 329 326 326 322 322 318 297 264 314 304 289 262 276 151 177 193 200 204 214 218 201 215 225 235 234 243 202 200 239 242 231 161 210 280 285 252 239
334 340 342 340 337 334 333 329 331 330 328 324 323 316 315 312 280 242 280 278 275 234 250 158 136 204 200 200 229 191 208 208 229 243 247 258 326 260 244 248 266 276 293 280 253 276 2
315 323 330 334 334 331 331 328 328 329 329 323 319 311 303 270 202 246 247 240 220 241 132 162 171 188 202 195 214 218 196 203 220 226 237 252 219 250 225 243 236 243 259 256 8 5 260
307 313 320 325 329 328 326 328 325 328 330 323 321 310 293 255 226 269 221 225 244 230 248 120 182 188 204 197 217 201 184 217 215 229 231 232 239 237 243 248 256 218 251 234 131 267 223
303 309 315 320 322 323 323 326 326 328 333 325 328 317 317 295 221 196 221 225 227 259 298 167 202 187 204 209 204 199 206 216 217 224 239 234 226 247 223 217 249 245 226 251 199 227 260
301 306 314 319 319 318 321 325 327 328 336 328 329 277 244 200 186 188 230 244 251 322 330 342 282 221 202 210 203 200 207 218 225 209 236 253 272 209 201 213 222 248 264 293 230 267 273
297 302 309 316 316 317 323 326 329 329 339 333 324 257 161 177 180 212 230 239 244 249 281 265 275 278 241 214 208 224 214 215 220 230 206 245 264 255 189 197 216 223 242 257 287 293 295
291 298 303 312 311 319 326 330 333 333 340 337 291 270 169 166 201 224 238 246 271 279 180 256 277 285 297 262 218 215 240 225 199 225 193 226 252 250 196 199 230 224 225 232 243 243 232
288 294 299 305 309 319 329 333 336 336 344 346 296 277 176 191 230 229 221 248 261 282 260 254 243 258 278 288 283 213 226 225 203 204 233 207 241 261 210 193 208 237 226 252 275 279 40
282 290 299 299 309 318 328 334 336 336 337 339 297 281 157 211 250 286 283 220 242 225 253 260 259 265 276 259 274 216 225 136 165 226 300 215 239 242 210 208 202 219 233 256 266 267 154
282 294 301 296 306 316 326 333 335 335 329 330 246 314 314 227 218 239 264 288 288 241 198 230 260 270 267 252 245 246 221 173 173 158 216 218 235 251 291 295 304 212 206 226 246 266 320
274 290 295 300 305 317 325 330 335 338 329 311 306 344 332 300 268 282 293 272 273 263 263 201 231 239 230 255 250 266 244 216 179 186 216 216 233 255 249 188 239 275 183 301 218 246 263
267 279 289 296 302 316 325 331 337 342 353 312 355 320 309 294 282 273 249 281 327 259 318 290 257 296 263 224 24 357 330 327 281 205 201 220 225 234 235 246 197 224 244 249 265 266 266
264 262 273 288 299 320 329 338 342 343 346 332 326 328 296 284 273 275 77 49 351 290 287 292 273 258 276 346 33 211 307 349 7 219 192 219 220 234 246 229 246 238 22 322 275 284 338
254 258 267 279 294 321 332 342 347 340 333 322 331 323 303 296 296 298 14 161 216 249 250 257 263 273 282 293 270 200 240 18 351 323 297 262 216 231 254 236 266 171 29 15 348 1 4
250 254 260 267 286 307 332 350 350 343 333 317 333 302 293 283 268 345 322 297 279 268 273 223 255 273 263 269 261 243 169 136 260 284 237 245 89 94 15 120 85 296 348 2 341 284 333
257 250 254 258 281 294 314 334 346 344 335 337 279 333 303 289 269 318 319 323 312 330 7 7 324 280 225 250 258 49 66 339 57 301 10 57 14 25 222 273 213 158 213 214 221 244 166
263 256 258 257 275 295 304 321 327 336 335 335 236 297 315 293 286 283 293 290 296 325 46 166 291 243 277 229 269 90 74 25 2 330 131 35 360 235 238 250 90 118 141 263 120 80 136
259 270 280 277 277 287 297 311 316 326 331 333 26 316 306 276 271 295 280 272 268 263 284 276 279 297 349 340 59 43 20 340 114 302 300 3 172 306 317 101 159 196 91 192 128 262 131